Погода в Джехроме

Иран     28°29′57″N   53°33′43″E
темп.,
°C
ветер,
м/с
пор.,
м/с
влажн.,
%
обл.,
%
осадки,
мм/ч
давл.,
гПа
погр.,
м
18 августа, чт
чт1801:30+30ссв45129 0.0 100277
04:30+28ссв461361 0.0 100369
07:30+27св45150 0.0 100577
10:30+32св81090 0.0 10041829
13:30+35ссв8972 0.0 10022598
16:30+36с5865 0.0 9993543
19:30+34св711746 0.0 999266
22:30+31св33104 0.0 100129
19 августа, пт
пт1901:30+29с33123 0.0 100216
04:30+27св33125 0.0 100214
07:30+27св33133 0.0 100326
10:30+32св4685 0.0 10031037
13:30+36св5864 0.0 10013069
16:30+37ссв4664 0.0 9993890
19:30+34в2285 0.0 99921
22:30+31юв11106 0.0 100211
20 августа, сб
сб2001:30+29с22111 0.0 100211
04:30+27св2293 0.0 100311
07:30+27св3391 0.0 100417
10:30+33св3460 0.0 1004688
13:30+36св3460 0.0 10022788
16:30+37всв4763 0.0 10004352
19:30+35юв1195 0.0 99912
22:30+32в22107 0.0 100220
21 августа, вс
вс2101:30+30всв22105 0.0 100213
04:30+28св33105 0.0 100317
07:30+27св33110 0.0 100534
10:30+32св4570 0.0 1005886
13:30+35всв4465 0.0 10022323
16:30+36всв4662 0.0 10003613
19:30+34юв2284 0.0 100119
22:30+31всв22102 0.0 100312
22 августа, пн
пн2201:30+29всв23110 0.0 100316
04:30+27св22120 0.0 100312
07:30+27св33130 0.0 100626
10:30+32св3490 0.0 1006844
13:30+35св3480 0.0 10042397
16:30+36всв2584 0.0 10014290
19:30+34ю1110100 0.0 100213
22:30+32ююз222782 0.0 100336